Tracking 18942 objects as of 18-Jan-2018
HD Live streaming from Space Station
objects crossing your sky now

FENGYUN 1C DEB

Track FENGYUN 1C DEB now!
10-day predictions


NORAD ID: 31691
Int'l Code: 1999-025CCZ
Perigee: 815.7 km
Apogee: 927.8 km
Inclination: 99.0 °
Period: 102.2 minutes
Semi major axis: 7242 km
RCS: 0.0089 m2 (small)
Launch date: May 10, 1999
Source: People's Republic of China (PRC)
Launch site: Taiyaun Space Center, China (TSC)

Note: This is SATELLITE DEBRIS
aabbcc
Your satellite tracking list
Your tracking list is empty




NASA's NSSDC Master Catalog

Two Line Element Set (TLE):
1 31691U 99025CCZ 18009.91652259 +.00000735 +00000-0 +44232-3 0  9995
2 31691 099.0461 058.3867 0077414 140.3100 220.3769 14.08462353232451
Source of the keplerian elements: AFSPC